THOR ABLESTAR DEB, 543

Orbit data source: Space-Track

THOR ABLESTAR DEB, 543 is space debris in LEO originally from a launch on Thu, 29 Jun 1961 UTC launched from the Air Force Eastern Test Range (AFETR). Debris objects in space refer to the collection of defunct objects orbiting the Earth. Examples of debris include non-operational satellites, rocket bodies, and fragments generated from explosions, collisions, or faulty payload assembly.

Loading next visibility...
Identifier
543, 1961-015GC
Orbit
LEO
Country
Flag of USUS
Related business
Manufacturer
Unknown
Mission
Spacecraft
Bus & Motor
Unknown
Mass
Unknown
Launch date (UTC)
1961-06-29 (65 years ago)
Launch vehicle
Unknown
Launch site
Air Force Eastern Test Range (AFETR)
Object type
Payload
Rocket body
Debris
Shape & HBR
Unknown shape, 0.1 m
Radar Cross Section
Small (<0.1 m²)

Expand to show TLE details & history
Last TLE update: 11 hours ago

TLE from 11 hours ago
0 THOR ABLESTAR DEB
1 00543U 61015GC  26037.06152254  .00000144  00000-0  24299-3 0  9996
2 00543  67.0293 250.1590 0073606 294.2725 224.9658 13.69181896218746
Epoch: 2026-02-06T01:28Z
TLE epoch observation values (Epoch: 2026-02-06T01:28:35.547Z)
Latitude
19.60291°
Longitude
-96.83131°
Altitude
1,042.783 km
Speed
7.313 km/s
True Right ascension
04h 06m 05s
True Declination
19° 29' 55"
Sunlit
Object was in daylight at epoch
Visualization orbit readout
Latitude
Unknown
Longitude
Unknown
Altitude
Unknown
Speed
Unknown
Apparent Right ascension
Unknown
Apparent Declination
Unknown
Sunlit
N/A
Visualization observer readout
Local Sidereal Time
14:20:42
Azimuth
Unknown
Elevation
Unknown
Doppler factor
Unknown
Orbital elements
Apogee altitude
1,055.208 km
Perigee altitude
946.58 km
Semi-major axis
7,379.031 km
Eccentricity
0.00736
Inclination
67.0293°
RAAN
250.159°
Arg. of periapsis
294.2725°
True anomaly
224.3736°
Mean anomaly
224.9658°
Eccentric anomaly
224.66932°
Mean motion
3.42408 °/min
Orbital period
105.14 mins
BSTAR
0.00024299
Loading maneuver chart data...
Computing Atmospheric mass density...

Documentation

Showing up to 5 results
|